Regional Weather Roundup
Issued by NWS

Home | Current Version | Previous Version | Text Only | Print | Product List | Glossary Off
Versions: 1 2 3 4 5 6 7 8 9 10 11 12 13 14 15 16 17 18 19 20 21 22 23 24 25 26 27 28 29 30 31 32 33 34 35 36 37 38 39 40 41 42 43 44 45 46 47 48 49 50

000
ASUS44 KMEG 281900
RWRTN
TENNESSEE HOURLY STATE WEATHER ROUNDUP
NATIONAL WEATHER SERVICE MEMPHIS TN
200 PM CDT FRI AUG 28 2015

TNZ002-004-019-021-049-052-054-088>092-282000-
WEST TENNESSEE

CITY           SKY/WX    TMP DP  RH WIND       PRES   REMARKS
MEMPHIS INTL   MOSUNNY   89  62  40 S6        30.05F
NWS MEMPHIS      N/A     85 N/A N/A MISG        N/A
JACKSON        MOSUNNY   86  65  49 S9        30.06F
DYERSBURG      MOSUNNY  N/A N/A N/A MISG        N/A
UNION CITY     PTSUNNY   82  64  54 CALM      30.06F
PARIS          MOSUNNY   84  64  51 VRB6      30.08F
LEXINGTON      PTSUNNY   84  64  51 E6        30.07F
$$

TNZ008-025-027-028-033-062-065-066-282000-
NORTH MIDDLE TENNESSEE

CITY           SKY/WX    TMP DP  RH WIND       PRES   REMARKS
NASHVILLE      PTSUNNY   89  62  40 NE6       30.09F
CLARKSVILLE    MOSUNNY   84  63  49 VRB7      30.08F
COOKEVILLE     SUNNY     88  66  48 VRB7      30.12F HX  90
CROSSVILLE     MOSUNNY   81  62  52 MISG      30.18F
$$

TNZ061-075-076-078-094-096-097-282000-
SOUTH MIDDLE TENNESSEE

CITY           SKY/WX    TMP DP  RH WIND       PRES   REMARKS
FAYETTEVILLE     N/A     82  64  54 CALM      30.11F
TULLAHOMA      SUNNY     84  63  48 SW5       30.12F
WINCHESTER     MOSUNNY   82  66  57 SE10      30.12S
COLUMBIA       MOSUNNY   88  64  45 SE6       30.08F
SHELBYVILLE    SUNNY     88  64  45 VRB6      30.11F
$$

TNZ017-018-042-046-047-282000-
NORTHEAST TENNESSEE

CITY           SKY/WX    TMP DP  RH WIND       PRES   REMARKS
TRI CITIES     MOSUNNY   84  60  44 NW7       30.18F
ELIZABETHTON   PTCLDY    84  55  37 CALM      30.18F
$$

TNZ012-013-036-069-073-074-282000-
CENTRAL EAST TENNESSEE

CITY           SKY/WX    TMP DP  RH WIND       PRES   REMARKS
KNOXVILLE      MOSUNNY   88  60  38 NE6       30.13F
OAK RIDGE      MOSUNNY   84  60  44 CALM      30.15F
GATLINBURG     MOCLDY    82  57  42 NE5       30.14S
$$

TNZ083-085-099-282000-
SOUTHEAST TENNESSEE

CITY           SKY/WX    TMP DP  RH WIND       PRES   REMARKS
CHATTANOOGA    PTSUNNY   84  67  56 VRB6      30.12F
$$

SKY/WX REPORTED AS FAIR MEANS FEW OR NO CLOUDS BELOW
12 THOUSAND FEET.




USA.gov is the U.S. government's official web portal to all federal, state and local government web resources and services.